Location: Newark
(31.5350°N, 35.0986°E)
Time: 22:53:26
(UTC+00:00)

A-11 Canister half - Visible Passes

Search period start: 23 October 2019 00:00
Search period end: 02 November 2019 00:00
Orbit: 1527 x 1682 km, 47.3° (Epoch: 22 October)

Date Brightness Start Highest point End Pass type
(mag) Time Alt. Az. Time Alt. Az. Time Alt. Az.
23 Oct 10.2 01:10:47 25° S 01:10:47 25° S 01:14:49 10° SSE visible
23 Oct 9.1 16:10:20 10° WSW 16:19:55 77° NW 16:27:50 16° NE visible
23 Oct 10.0 18:17:48 10° WNW 18:26:08 34° NNW 18:26:08 34° NNW visible
24 Oct 10.5 00:51:06 18° S 00:51:06 18° S 00:53:22 10° SSE visible
24 Oct 9.1 15:48:39 10° SW 15:58:17 80° NW 16:07:27 11° NE visible
24 Oct 9.9 17:56:00 10° W 18:04:27 35° NNW 18:05:46 34° N visible
24 Oct 11.2 20:03:50 10° NW 20:04:04 11° NW 20:04:04 11° NW visible
25 Oct 10.9 00:31:22 12° SSE 00:31:22 12° SSE 00:31:54 10° SSE visible
25 Oct 9.1 15:26:58 10° SW 15:36:39 84° NW 15:46:05 10° NE visible
25 Oct 9.9 17:34:12 10° W 17:42:43 36° NNW 17:45:21 31° NNE visible
25 Oct 11.0 19:42:08 10° NW 19:43:39 15° NW 19:43:39 15° NW visible
26 Oct 9.1 15:05:19 10° SW 15:15:01 87° NW 15:24:28 10° NE visible
26 Oct 9.9 17:12:24 10° W 17:21:00 37° NNW 17:24:54 27° NNE visible
26 Oct 10.8 19:20:25 10° NW 19:23:12 19° NW 19:23:12 19° NW visible
27 Oct 9.9 16:50:36 10° W 16:59:18 38° NNW 17:04:25 23° NNE visible
27 Oct 10.6 18:58:42 10° NW 19:02:43 23° NNW 19:02:43 23° NNW visible
28 Oct 9.9 16:28:48 10° W 16:37:35 39° NNW 16:43:55 18° NE visible
28 Oct 10.4 18:36:58 10° NW 18:42:12 26° NNW 18:42:12 26° NNW visible
29 Oct 9.9 16:07:01 10° W 16:15:52 40° NNW 16:23:23 14° NE visible
29 Oct 10.2 18:15:14 10° NW 18:21:41 29° NNW 18:21:41 29° NNW visible
30 Oct 9.8 15:45:13 10° W 15:54:10 42° NNW 16:02:51 10° NE visible
30 Oct 10.0 17:53:29 10° NW 18:01:08 30° N 18:01:08 30° N visible
31 Oct 9.8 15:23:26 10° W 15:32:28 43° NNW 15:41:19 10° NE visible
31 Oct 10.0 17:31:43 10° WNW 17:39:45 30° N 17:40:35 30° N visible
31 Oct 11.1 19:37:54 10° NW 19:38:52 14° NW 19:38:52 14° NW visible
01 Nov 9.8 15:01:38 10° W 15:10:46 45° NNW 15:19:41 10° NE visible
01 Nov 10.0 17:09:58 10° WNW 17:18:01 30° N 17:20:02 28° NNE visible
01 Nov 10.8 19:16:16 10° NW 19:18:20 18° NW 19:18:20 18° NW visible
